OPS 4682 DEB, 38370

Orbit data source: Space-Track

OPS 4682 DEB, 38370 is space debris in LEO originally from a launch on Sat, 03 Apr 1965 UTC launched from the Air Force Western Test Range (AFWTR). Debris objects in space refer to the collection of defunct objects orbiting the Earth. Examples of debris include non-operational satellites, rocket bodies, and fragments generated from explosions, collisions, or faulty payload assembly.

Loading next visibility...
Identifier
38370, 1965-027BX
Orbit
LEO
Country
Flag of USUS
Related business
Manufacturer
Unknown
Mission
Spacecraft
Bus & Motor
Unknown
Mass
Unknown
Launch date (UTC)
1965-04-03 (61 years ago)
Launch vehicle
Unknown
Launch site
Air Force Western Test Range (AFWTR)
Object type
Payload
Rocket body
Debris
Shape & HBR
Unknown shape, 0.1 m
Radar Cross Section
Medium (>0.1 m² and <1 m²)

Expand to show TLE details & history
Last TLE update: 5 days ago

TLE from 5 days ago
0 OPS 4682 DEB
1 38370U 65027BX  26250.79666659  .00001531  00000-0  49896-2 0  9998
2 38370  90.2587  13.8955 0026486  59.3462 301.0267 13.00932090616548
Epoch: 2026-09-07T19:07Z
TLE epoch observation values (Epoch: 2026-09-07T19:07:11.993Z)
Latitude
0.00001°
Longitude
100.22324°
Altitude
1,250.934 km
Speed
7.235 km/s
True Right ascension
00h 55m 34s
True Declination
0° 00' 00"
Sunlit
Object was in full shadow at epoch
Visualization orbit readout
Latitude
Unknown
Longitude
Unknown
Altitude
Unknown
Speed
Unknown
Apparent Right ascension
Unknown
Apparent Declination
Unknown
Sunlit
N/A
Visualization observer readout
Local Sidereal Time
09:55:34
Azimuth
Unknown
Elevation
Unknown
Doppler factor
Unknown
Orbital elements
Apogee altitude
1,275.781 km
Perigee altitude
1,235.344 km
Semi-major axis
7,633.699 km
Eccentricity
0.00265
Inclination
90.2587°
RAAN
13.8955°
Arg. of periapsis
59.3462°
True anomaly
300.76617°
Mean anomaly
301.0267°
Eccentric anomaly
300.89648°
Mean motion
3.25417 °/min
Orbital period
110.63 mins
BSTAR
0.0049896
Loading maneuver chart data...
Computing Atmospheric mass density...
Loading historical data...
Loading historical data...
Loading historical data...
Loading historical data...
Loading historical data...
Loading historical data...
Loading historical data...

Documentation

Showing up to 5 results
|